Location: Linz
(48.3300°N, 14.3000°E)
Time: 02:31:11
(UTC+01:00)

YUBILEINY - Pass Details

Date: 01 March 2019
Orbit: 1479 x 1508 km, 82.5° (Epoch: 18 March)

Event Time Altitude Azimuth Distance (km) Brightness Sun altitude
Exits shadow 05:35:54 - 229° (SW) 4,181 ? -12.3°
Reaches altitude 10° 05:37:51 10° 235° (SW) 3,616 ? -12.0°
Maximum altitude 05:45:25 32° 297° (WNW) 2,318 ? -10.7°
Drops below altitude 10° 05:53:05 10° 358° (N) 3,645 ? -9.4°
Sets 05:56:27 0° 8° (N) 4,632 ? -8.9°
